Time,TemperatureF,DewpointF,PressureIn,WindDirection,WindDirectionDegrees,WindSpeedMPH,WindSpeedGustMPH,Humidity,HourlyPrecipIn,Conditions,Clouds,dailyrainin,SoftwareType,DateUTC
2013-03-03 00:00:00,12.9,10.8,30.12,West,274,0.0,0.0,91,0.00,,---,0.00,VWS V14.01,2013-03-03 05:00:00,
2013-03-03 00:05:00,12.9,10.5,30.12,West,274,0.0,0.0,90,0.00,,---,0.00,VWS V14.01,2013-03-03 05:05:00,
2013-03-03 00:10:00,13.1,11.0,30.12,WSW,256,0.0,0.0,91,0.00,,---,0.00,VWS V14.01,2013-03-03 05:10:00,
2013-03-03 00:15:00,13.5,11.4,30.12,WSW,256,0.0,0.0,91,0.00,,---,0.00,VWS V14.01,2013-03-03 05:15:00,
2013-03-03 00:20:00,13.6,11.2,30.11,WSW,256,0.0,0.0,90,0.00,,---,0.00,VWS V14.01,2013-03-03 05:20:00,
2013-03-03 00:25:00,13.5,10.9,30.12,WSW,256,0.0,0.0,89,0.00,,---,0.00,VWS V14.01,2013-03-03 05:25:00,
2013-03-03 00:30:00,13.6,11.2,30.11,WSW,255,0.0,0.0,90,0.00,,---,0.00,VWS V14.01,2013-03-03 05:30:00,
2013-03-03 00:35:00,13.7,11.3,30.11,WSW,256,0.0,0.0,90,0.00,,---,0.00,VWS V14.01,2013-03-03 05:35:00,
2013-03-03 00:40:00,13.8,11.4,30.11,WSW,256,0.0,0.0,90,0.00,,---,0.00,VWS V14.01,2013-03-03 05:40:00,
2013-03-03 00:45:00,14.1,12.0,30.11,WSW,248,0.0,0.0,91,0.00,,---,0.00,VWS V14.01,2013-03-03 05:45:00,
2013-03-03 00:50:00,14.5,11.9,30.11,WSW,248,0.0,0.0,89,0.00,,---,0.00,VWS V14.01,2013-03-03 05:50:00,
2013-03-03 00:55:00,14.5,11.9,30.11,WSW,248,0.0,0.0,89,0.00,,---,0.00,VWS V14.01,2013-03-03 05:55:00,
2013-03-03 01:00:00,14.6,11.9,30.11,WSW,248,0.0,0.0,89,0.00,,---,0.00,VWS V14.01,2013-03-03 06:00:00,
2013-03-03 01:05:00,14.8,12.1,30.11,WSW,248,0.0,0.0,89,0.00,,---,0.00,VWS V14.01,2013-03-03 06:05:00,
2013-03-03 01:10:00,15.4,13.0,30.11,WSW,248,0.0,0.0,90,0.00,,---,0.00,VWS V14.01,2013-03-03 06:10:00,
2013-03-03 01:15:00,16.1,13.4,30.11,WSW,248,0.0,0.0,89,0.00,,---,0.00,VWS V14.01,2013-03-03 06:15:00,
2013-03-03 01:20:00,16.5,13.6,30.11,WSW,248,0.0,0.0,88,0.00,,---,0.00,VWS V14.01,2013-03-03 06:20:00,
2013-03-03 01:25:00,16.4,13.2,30.11,WSW,248,0.0,0.0,87,0.00,,---,0.00,VWS V14.01,2013-03-03 06:25:00,
2013-03-03 01:30:00,16.4,13.5,30.11,WSW,248,0.0,0.0,88,0.00,,---,0.00,VWS V14.01,2013-03-03 06:30:00,
2013-03-03 01:35:00,16.6,13.7,30.11,WSW,248,0.0,0.0,88,0.00,,---,0.00,VWS V14.01,2013-03-03 06:35:00,
2013-03-03 01:40:00,17.0,14.1,30.11,WSW,248,0.0,0.0,88,0.00,,---,0.00,VWS V14.01,2013-03-03 06:40:00,
2013-03-03 01:45:00,17.2,14.0,30.11,WSW,248,0.0,0.0,87,0.00,,---,0.00,VWS V14.01,2013-03-03 06:45:00,
2013-03-03 01:50:00,17.4,14.2,30.11,WSW,248,0.0,0.0,87,0.00,,---,0.00,VWS V14.01,2013-03-03 06:50:00,
2013-03-03 01:55:00,17.8,14.6,30.11,SW,225,0.0,1.0,87,0.00,,---,0.00,VWS V14.01,2013-03-03 06:55:00,
2013-03-03 02:00:00,17.9,14.2,30.10,SW,225,0.0,0.0,85,0.00,,---,0.00,VWS V14.01,2013-03-03 07:00:00,
2013-03-03 02:05:00,17.7,14.2,30.10,SW,225,0.0,0.0,86,0.00,,---,0.00,VWS V14.01,2013-03-03 07:05:00,
2013-03-03 02:10:00,17.8,14.3,30.10,SW,231,0.0,0.0,86,0.00,,---,0.00,VWS V14.01,2013-03-03 07:10:00,
2013-03-03 02:15:00,18.1,14.6,30.10,West,262,0.0,1.0,86,0.00,,---,0.00,VWS V14.01,2013-03-03 07:15:00,
2013-03-03 02:20:00,18.9,15.1,30.10,NW,309,0.0,1.0,85,0.00,,---,0.00,VWS V14.01,2013-03-03 07:20:00,
2013-03-03 02:25:00,19.0,15.0,30.10,North,349,0.0,1.0,84,0.00,,---,0.00,VWS V14.01,2013-03-03 07:25:00,
2013-03-03 02:30:00,19.0,15.0,30.10,NE,39,0.0,1.0,84,0.00,,---,0.00,VWS V14.01,2013-03-03 07:30:00,
2013-03-03 02:35:00,19.3,15.0,30.10,NNE,27,0.0,2.0,83,0.00,,---,0.00,VWS V14.01,2013-03-03 07:35:00,
2013-03-03 02:40:00,19.7,15.4,30.10,West,266,0.0,2.0,83,0.00,,---,0.00,VWS V14.01,2013-03-03 07:40:00,
2013-03-03 02:45:00,19.8,15.2,30.10,West,273,0.0,2.0,82,0.00,,---,0.00,VWS V14.01,2013-03-03 07:45:00,
2013-03-03 02:50:00,19.7,15.1,30.10,West,273,0.0,1.0,82,0.00,,---,0.00,VWS V14.01,2013-03-03 07:50:00,
2013-03-03 02:55:00,19.8,15.2,30.10,West,266,0.0,1.0,82,0.00,,---,0.00,VWS V14.01,2013-03-03 07:55:00,
2013-03-03 03:00:00,20.0,15.4,30.10,WNW,295,0.0,2.0,82,0.00,,---,0.00,VWS V14.01,2013-03-03 08:00:00,
2013-03-03 03:05:00,20.1,15.5,30.10,NW,309,0.0,1.0,82,0.00,,---,0.00,VWS V14.01,2013-03-03 08:05:00,
2013-03-03 03:10:00,20.2,15.3,30.09,WNW,285,0.0,3.0,81,0.00,,---,0.00,VWS V14.01,2013-03-03 08:10:00,
2013-03-03 03:15:00,20.3,15.4,30.09,NW,311,4.0,4.0,81,0.00,,---,0.00,VWS V14.01,2013-03-03 08:15:00,
2013-03-03 03:20:00,20.6,15.4,30.09,North,359,0.0,3.0,80,0.00,,---,0.00,VWS V14.01,2013-03-03 08:20:00,
2013-03-03 03:25:00,20.8,15.6,30.09,NNW,338,2.0,3.0,80,0.00,,---,0.00,VWS V14.01,2013-03-03 08:25:00,
2013-03-03 03:30:00,20.8,15.3,30.09,NW,304,2.0,3.0,79,0.00,,---,0.00,VWS V14.01,2013-03-03 08:30:00,
2013-03-03 03:35:00,20.9,15.4,30.09,NNW,338,4.0,5.0,79,0.00,,---,0.00,VWS V14.01,2013-03-03 08:35:00,
2013-03-03 03:40:00,21.0,15.2,30.09,ENE,65,2.0,5.0,78,0.00,,---,0.00,VWS V14.01,2013-03-03 08:40:00,
2013-03-03 03:45:00,21.1,15.3,30.09,NE,39,0.0,6.0,78,0.00,,---,0.00,VWS V14.01,2013-03-03 08:45:00,
2013-03-03 03:50:00,21.0,15.2,30.09,NW,308,1.0,3.0,78,0.00,,---,0.00,VWS V14.01,2013-03-03 08:50:00,
2013-03-03 03:55:00,20.9,15.4,30.09,West,280,0.0,0.0,79,0.00,,---,0.00,VWS V14.01,2013-03-03 08:55:00,
2013-03-03 04:00:00,20.8,15.3,30.09,NNW,330,1.0,4.0,79,0.00,,---,0.00,VWS V14.01,2013-03-03 09:00:00,
2013-03-03 04:05:00,20.8,15.0,30.09,WNW,300,0.0,7.0,78,0.00,,---,0.00,VWS V14.01,2013-03-03 09:05:00,
2013-03-03 04:10:00,20.8,15.0,30.09,NW,321,6.0,6.0,78,0.00,,---,0.00,VWS V14.01,2013-03-03 09:10:00,
2013-03-03 04:15:00,20.8,15.0,30.09,NW,314,3.0,7.0,78,0.00,,---,0.00,VWS V14.01,2013-03-03 09:15:00,
2013-03-03 04:20:00,20.8,15.0,30.09,North,1,0.0,5.0,78,0.00,,---,0.00,VWS V14.01,2013-03-03 09:20:00,
2013-03-03 04:25:00,20.7,14.9,30.09,NW,312,1.0,2.0,78,0.00,,---,0.00,VWS V14.01,2013-03-03 09:25:00,
2013-03-03 04:30:00,20.7,14.9,30.09,NW,319,0.0,1.0,78,0.00,,---,0.00,VWS V14.01,2013-03-03 09:30:00,
2013-03-03 04:35:00,20.6,14.8,30.09,NW,319,0.0,0.0,78,0.00,,---,0.00,VWS V14.01,2013-03-03 09:35:00,
2013-03-03 04:40:00,20.6,14.8,30.09,North,349,0.0,1.0,78,0.00,,---,0.00,VWS V14.01,2013-03-03 09:40:00,
2013-03-03 04:45:00,20.5,15.0,30.09,WNW,290,0.0,1.0,79,0.00,,---,0.00,VWS V14.01,2013-03-03 09:45:00,
2013-03-03 04:50:00,20.5,15.0,30.09,West,262,0.0,1.0,79,0.00,,---,0.00,VWS V14.01,2013-03-03 09:50:00,
2013-03-03 04:55:00,20.5,15.0,30.09,West,262,0.0,0.0,79,0.00,,---,0.00,VWS V14.01,2013-03-03 09:55:00,
2013-03-03 05:00:00,20.4,15.2,30.09,West,263,1.0,2.0,80,0.00,,---,0.00,VWS V14.01,2013-03-03 10:00:00,
2013-03-03 05:05:00,20.4,14.9,30.09,WSW,246,2.0,2.0,79,0.00,,---,0.00,VWS V14.01,2013-03-03 10:05:00,
2013-03-03 05:10:00,20.4,15.2,30.09,NW,311,0.0,3.0,80,0.00,,---,0.00,VWS V14.01,2013-03-03 10:10:00,
2013-03-03 05:15:00,20.3,15.1,30.09,NW,312,0.0,0.0,80,0.00,,---,0.00,VWS V14.01,2013-03-03 10:15:00,
2013-03-03 05:20:00,20.3,14.8,30.09,NNW,327,0.0,3.0,79,0.00,,---,0.00,VWS V14.01,2013-03-03 10:20:00,
2013-03-03 05:25:00,20.2,14.7,30.09,NNE,26,0.0,3.0,79,0.00,,---,0.00,VWS V14.01,2013-03-03 10:25:00,
2013-03-03 05:30:00,20.1,14.6,30.09,NNE,15,1.0,2.0,79,0.00,,---,0.00,VWS V14.01,2013-03-03 10:30:00,
2013-03-03 05:35:00,20.0,14.6,30.09,North,9,1.0,3.0,79,0.00,,---,0.00,VWS V14.01,2013-03-03 10:35:00,
2013-03-03 05:40:00,20.0,14.6,30.09,SW,215,0.0,1.0,79,0.00,,---,0.00,VWS V14.01,2013-03-03 10:40:00,
2013-03-03 05:45:00,19.9,14.4,30.09,WNW,295,0.0,0.0,79,0.00,,---,0.00,VWS V14.01,2013-03-03 10:45:00,
2013-03-03 05:50:00,19.8,14.4,30.09,NNW,333,1.0,1.0,79,0.00,,---,0.00,VWS V14.01,2013-03-03 10:50:00,
2013-03-03 05:55:00,19.6,14.2,30.09,NW,317,0.0,2.0,79,0.00,,---,0.00,VWS V14.01,2013-03-03 10:55:00,
2013-03-03 06:00:00,19.4,14.0,30.09,WNW,300,1.0,1.0,79,0.00,,---,0.00,VWS V14.01,2013-03-03 11:00:00,
2013-03-03 06:05:00,19.1,13.7,30.09,NW,316,0.0,2.0,79,0.00,,---,0.00,VWS V14.01,2013-03-03 11:05:00,
2013-03-03 06:10:00,18.9,13.5,30.09,NW,307,0.0,1.0,79,0.00,,---,0.00,VWS V14.01,2013-03-03 11:10:00,
2013-03-03 06:15:00,18.5,13.4,30.09,NW,306,0.0,0.0,80,0.00,,---,0.00,VWS V14.01,2013-03-03 11:15:00,
2013-03-03 06:20:00,18.2,13.1,30.09,WNW,295,0.0,1.0,80,0.00,,---,0.00,VWS V14.01,2013-03-03 11:20:00,
2013-03-03 06:25:00,17.9,13.1,30.09,WNW,296,0.0,1.0,81,0.00,,---,0.00,VWS V14.01,2013-03-03 11:25:00,
2013-03-03 06:30:00,17.7,12.9,30.10,NW,304,0.0,0.0,81,0.00,,---,0.00,VWS V14.01,2013-03-03 11:30:00,
2013-03-03 06:35:00,17.3,12.5,30.10,NW,304,0.0,0.0,81,0.00,,---,0.00,VWS V14.01,2013-03-03 11:35:00,
2013-03-03 06:40:00,16.6,12.1,30.10,NW,304,0.0,0.0,82,0.00,,---,0.00,VWS V14.01,2013-03-03 11:40:00,
2013-03-03 06:45:00,16.2,12.0,30.10,WNW,303,0.0,0.0,83,0.00,,---,0.00,VWS V14.01,2013-03-03 11:45:00,
2013-03-03 06:49:00,16.1,12.1,30.10,West,277,0.0,1.0,84,0.00,,---,0.00,VWS V14.01,2013-03-03 11:49:00,
2013-03-03 06:50:00,16.1,12.1,30.10,WNW,295,0.0,1.0,84,0.00,,---,0.00,VWS V14.01,2013-03-03 11:50:00,
2013-03-03 06:54:00,16.1,12.1,30.10,West,277,0.0,1.0,84,0.00,,---,0.00,VWS V14.01,2013-03-03 11:54:00,
2013-03-03 06:55:00,15.9,11.9,30.10,West,281,0.0,1.0,84,0.00,,---,0.00,VWS V14.01,2013-03-03 11:55:00,
2013-03-03 06:59:00,15.9,11.9,30.10,West,269,0.0,0.0,84,0.00,,---,0.00,VWS V14.01,2013-03-03 11:59:00,
2013-03-03 07:00:00,15.7,11.7,30.10,WNW,293,0.0,2.0,84,0.00,,---,0.00,VWS V14.01,2013-03-03 12:00:00,
2013-03-03 07:04:00,15.7,11.7,30.10,NNW,329,2.0,2.0,84,0.00,,---,0.00,VWS V14.01,2013-03-03 12:04:00,
2013-03-03 07:05:00,15.5,11.5,30.11,NW,306,0.0,0.0,84,0.00,,---,0.00,VWS V14.01,2013-03-03 12:05:00,
2013-03-03 07:09:00,15.6,11.6,30.10,NW,307,0.0,0.0,84,0.00,,---,0.00,VWS V14.01,2013-03-03 12:09:00,
2013-03-03 07:10:00,15.3,11.3,30.11,WSW,257,0.0,0.0,84,0.00,,---,0.00,VWS V14.01,2013-03-03 12:10:00,
2013-03-03 07:14:00,15.4,11.4,30.11,WSW,257,0.0,0.0,84,0.00,,---,0.00,VWS V14.01,2013-03-03 12:14:00,
2013-03-03 07:15:00,15.0,11.1,30.11,WSW,258,0.0,0.0,84,0.00,,---,0.00,VWS V14.01,2013-03-03 12:15:00,
2013-03-03 07:19:00,15.1,11.1,30.11,WSW,257,0.0,0.0,84,0.00,,---,0.00,VWS V14.01,2013-03-03 12:19:00,
2013-03-03 07:20:00,14.9,10.9,30.11,WSW,257,0.0,0.0,84,0.00,,---,0.00,VWS V14.01,2013-03-03 12:20:00,
2013-03-03 07:24:00,14.9,10.9,30.11,WSW,257,0.0,0.0,84,0.00,,---,0.00,VWS V14.01,2013-03-03 12:24:00,
2013-03-03 07:25:00,14.8,11.1,30.11,WSW,257,0.0,0.0,85,0.00,,---,0.00,VWS V14.01,2013-03-03 12:25:00,
2013-03-03 07:29:00,14.8,11.1,30.11,WSW,257,0.0,0.0,85,0.00,,---,0.00,VWS V14.01,2013-03-03 12:29:00,
2013-03-03 07:30:00,14.8,11.1,30.11,WSW,257,0.0,0.0,85,0.00,,---,0.00,VWS V14.01,2013-03-03 12:30:00,
2013-03-03 07:34:00,14.8,11.1,30.11,WSW,257,0.0,0.0,85,0.00,,---,0.00,VWS V14.01,2013-03-03 12:34:00,
2013-03-03 07:35:00,14.5,10.8,30.11,WSW,257,0.0,0.0,85,0.00,,---,0.00,VWS V14.01,2013-03-03 12:35:00,
2013-03-03 07:39:00,14.6,10.9,30.11,WSW,257,0.0,0.0,85,0.00,,---,0.00,VWS V14.01,2013-03-03 12:39:00,
2013-03-03 07:40:00,14.4,11.0,30.11,WSW,240,0.0,0.0,86,0.00,,---,0.00,VWS V14.01,2013-03-03 12:40:00,
2013-03-03 07:44:00,14.4,11.0,30.11,WSW,258,0.0,0.0,86,0.00,,---,0.00,VWS V14.01,2013-03-03 12:44:00,
2013-03-03 07:45:00,14.6,11.2,30.11,WSW,240,0.0,0.0,86,0.00,,---,0.00,VWS V14.01,2013-03-03 12:45:00,
2013-03-03 07:49:00,14.5,11.1,30.11,WSW,240,0.0,0.0,86,0.00,,---,0.00,VWS V14.01,2013-03-03 12:49:00,
2013-03-03 07:50:00,14.9,11.2,30.11,WSW,240,0.0,0.0,85,0.00,,---,0.00,VWS V14.01,2013-03-03 12:50:00,
2013-03-03 07:54:00,14.8,11.1,30.11,WSW,240,0.0,0.0,85,0.00,,---,0.00,VWS V14.01,2013-03-03 12:54:00,
2013-03-03 07:55:00,15.2,11.5,30.11,SW,223,0.0,1.0,85,0.00,,---,0.00,VWS V14.01,2013-03-03 12:55:00,
2013-03-03 07:59:00,15.1,11.4,30.11,SW,223,0.0,1.0,85,0.00,,---,0.00,VWS V14.01,2013-03-03 12:59:00,
2013-03-03 08:00:00,15.8,12.1,30.11,SW,224,0.0,0.0,85,0.00,,---,0.00,VWS V14.01,2013-03-03 13:00:00,
2013-03-03 08:04:00,15.5,11.8,30.11,SW,224,0.0,0.0,85,0.00,,---,0.00,VWS V14.01,2013-03-03 13:04:00,
2013-03-03 08:05:00,16.5,12.2,30.11,SW,224,0.0,1.0,83,0.00,,---,0.00,VWS V14.01,2013-03-03 13:05:00,
2013-03-03 08:09:00,16.2,12.2,30.11,SW,224,0.0,0.0,84,0.00,,---,0.00,VWS V14.01,2013-03-03 13:09:00,
2013-03-03 08:10:00,17.0,12.5,30.11,West,260,0.0,1.0,82,0.00,,---,0.00,VWS V14.01,2013-03-03 13:10:00,
2013-03-03 08:14:00,16.8,12.5,30.11,SW,217,1.0,1.0,83,0.00,,---,0.00,VWS V14.01,2013-03-03 13:14:00,
2013-03-03 08:15:00,17.6,12.8,30.11,West,270,2.0,2.0,81,0.00,,---,0.00,VWS V14.01,2013-03-03 13:15:00,
2013-03-03 08:19:00,17.4,12.9,30.11,West,262,0.0,1.0,82,0.00,,---,0.00,VWS V14.01,2013-03-03 13:19:00,
2013-03-03 08:20:00,18.0,12.9,30.11,West,278,0.0,2.0,80,0.00,,---,0.00,VWS V14.01,2013-03-03 13:20:00,
2013-03-03 08:24:00,17.8,12.7,30.11,NW,309,1.0,2.0,80,0.00,,---,0.00,VWS V14.01,2013-03-03 13:24:00,
2013-03-03 08:25:00,18.6,13.2,30.11,West,265,0.0,2.0,79,0.00,,---,0.00,VWS V14.01,2013-03-03 13:25:00,
2013-03-03 08:29:00,18.4,13.3,30.11,SW,229,1.0,2.0,80,0.00,,---,0.00,VWS V14.01,2013-03-03 13:29:00,
2013-03-03 08:30:00,19.2,13.5,30.11,West,269,0.0,2.0,78,0.00,,---,0.00,VWS V14.01,2013-03-03 13:30:00,
2013-03-03 08:34:00,18.9,13.5,30.11,WSW,249,0.0,1.0,79,0.00,,---,0.00,VWS V14.01,2013-03-03 13:34:00,
2013-03-03 08:35:00,19.7,13.7,30.11,NNW,330,0.0,2.0,77,0.00,,---,0.00,VWS V14.01,2013-03-03 13:35:00,
2013-03-03 08:39:00,19.6,13.6,30.11,SW,228,0.0,1.0,77,0.00,,---,0.00,VWS V14.01,2013-03-03 13:39:00,
2013-03-03 08:40:00,20.1,13.5,30.11,NW,314,2.0,4.0,75,0.00,,---,0.00,VWS V14.01,2013-03-03 13:40:00,
2013-03-03 08:44:00,20.0,14.0,30.11,NNW,328,4.0,4.0,77,0.00,,---,0.00,VWS V14.01,2013-03-03 13:44:00,
2013-03-03 08:45:00,20.5,13.9,30.10,NW,312,1.0,2.0,75,0.00,,---,0.00,VWS V14.01,2013-03-03 13:45:00,
2013-03-03 08:49:00,20.3,13.7,30.10,WSW,239,0.0,2.0,75,0.00,,---,0.00,VWS V14.01,2013-03-03 13:49:00,
2013-03-03 08:50:00,21.1,14.1,30.10,NNW,340,0.0,3.0,74,0.00,,---,0.00,VWS V14.01,2013-03-03 13:50:00,
2013-03-03 08:54:00,20.8,13.8,30.11,WSW,246,1.0,3.0,74,0.00,,---,0.00,VWS V14.01,2013-03-03 13:54:00,
2013-03-03 08:55:00,21.6,14.3,30.10,SW,221,0.0,3.0,73,0.00,,---,0.00,VWS V14.01,2013-03-03 13:55:00,
2013-03-03 08:59:00,21.3,14.0,30.10,NW,321,0.0,3.0,73,0.00,,---,0.00,VWS V14.01,2013-03-03 13:59:00,
2013-03-03 09:00:00,22.0,14.4,30.10,WNW,291,3.0,4.0,72,0.00,,---,0.00,VWS V14.01,2013-03-03 14:00:00,
2013-03-03 09:04:00,21.9,14.3,30.10,NW,312,1.0,4.0,72,0.00,,---,0.00,VWS V14.01,2013-03-03 14:04:00,
2013-03-03 09:05:00,22.4,14.8,30.10,NW,306,1.0,3.0,72,0.00,,---,0.00,VWS V14.01,2013-03-03 14:05:00,
2013-03-03 09:09:00,22.2,14.6,30.10,SW,229,0.0,3.0,72,0.00,,---,0.00,VWS V14.01,2013-03-03 14:09:00,
2013-03-03 09:10:00,22.5,14.2,30.10,NW,311,1.0,7.0,70,0.00,,---,0.00,VWS V14.01,2013-03-03 14:10:00,
2013-03-03 09:14:00,22.5,14.5,30.10,West,281,1.0,6.0,71,0.00,,---,0.00,VWS V14.01,2013-03-03 14:14:00,
2013-03-03 09:15:00,22.5,14.5,30.10,West,269,2.0,7.0,71,0.00,,---,0.00,VWS V14.01,2013-03-03 14:15:00,
2013-03-03 09:19:00,22.4,14.1,30.10,NNE,17,3.0,7.0,70,0.00,,---,0.00,VWS V14.01,2013-03-03 14:19:00,
2013-03-03 09:20:00,22.9,14.6,30.10,WNW,293,3.0,4.0,70,0.00,,---,0.00,VWS V14.01,2013-03-03 14:20:00,
2013-03-03 09:24:00,22.8,14.8,30.10,West,261,1.0,4.0,71,0.00,,---,0.00,VWS V14.01,2013-03-03 14:24:00,
2013-03-03 09:25:00,23.1,14.5,30.10,NW,321,0.0,4.0,69,0.00,,---,0.00,VWS V14.01,2013-03-03 14:25:00,
2013-03-03 09:29:00,23.1,14.5,30.10,West,264,3.0,3.0,69,0.00,,---,0.00,VWS V14.01,2013-03-03 14:29:00,
2013-03-03 09:30:00,23.4,15.1,30.10,West,273,2.0,5.0,70,0.00,,---,0.00,VWS V14.01,2013-03-03 14:30:00,
2013-03-03 09:34:00,23.2,14.6,30.10,NNW,331,1.0,5.0,69,0.00,,---,0.00,VWS V14.01,2013-03-03 14:34:00,
2013-03-03 09:35:00,23.6,14.9,30.10,SW,224,0.0,4.0,69,0.00,,---,0.00,VWS V14.01,2013-03-03 14:35:00,
2013-03-03 09:39:00,23.6,14.9,30.10,West,276,2.0,3.0,69,0.00,,---,0.00,VWS V14.01,2013-03-03 14:39:00,
2013-03-03 09:40:00,23.9,15.2,30.10,WSW,253,2.0,4.0,69,0.00,,---,0.00,VWS V14.01,2013-03-03 14:40:00,
2013-03-03 09:44:00,23.9,15.2,30.10,NW,318,4.0,4.0,69,0.00,,---,0.00,VWS V14.01,2013-03-03 14:44:00,
2013-03-03 09:45:00,24.1,14.7,30.10,NNW,340,3.0,6.0,67,0.00,,---,0.00,VWS V14.01,2013-03-03 14:45:00,
2013-03-03 09:49:00,24.0,14.6,30.10,WNW,300,0.0,6.0,67,0.00,,---,0.00,VWS V14.01,2013-03-03 14:49:00,
2013-03-03 09:50:00,24.2,14.5,30.10,NNW,328,4.0,10.0,66,0.00,,---,0.00,VWS V14.01,2013-03-03 14:50:00,
2013-03-03 09:54:00,24.2,15.2,30.10,WNW,286,4.0,10.0,68,0.00,,---,0.00,VWS V14.01,2013-03-03 14:54:00,
2013-03-03 09:55:00,24.1,14.7,30.10,NNE,33,8.0,15.0,67,0.00,,---,0.00,VWS V14.01,2013-03-03 14:55:00,
2013-03-03 09:59:00,24.0,14.6,30.10,NW,318,3.0,15.0,67,0.00,,---,0.00,VWS V14.01,2013-03-03 14:59:00,
2013-03-03 10:00:00,24.0,14.6,30.10,NW,308,6.0,9.0,67,0.00,,---,0.00,VWS V14.01,2013-03-03 15:00:00,
2013-03-03 10:04:00,24.0,14.6,30.10,NW,314,3.0,9.0,67,0.00,,---,0.00,VWS V14.01,2013-03-03 15:04:00,
2013-03-03 10:05:00,24.0,14.6,30.10,NNW,341,3.0,10.0,67,0.00,,---,0.00,VWS V14.01,2013-03-03 15:05:00,
2013-03-03 10:09:00,24.0,14.6,30.10,NW,310,5.0,10.0,67,0.00,,---,0.00,VWS V14.01,2013-03-03 15:09:00,
2013-03-03 10:10:00,24.3,14.9,30.09,NW,316,6.0,16.0,67,0.00,,---,0.00,VWS V14.01,2013-03-03 15:10:00,
2013-03-03 10:14:00,24.2,14.8,30.10,NNW,340,3.0,6.0,67,0.00,,---,0.00,VWS V14.01,2013-03-03 15:14:00,
2013-03-03 10:15:00,24.3,14.9,30.09,NW,305,6.0,10.0,67,0.00,,---,0.00,VWS V14.01,2013-03-03 15:15:00,
2013-03-03 10:19:00,24.2,14.5,30.10,WNW,290,0.0,10.0,66,0.00,,---,0.00,VWS V14.01,2013-03-03 15:19:00,
2013-03-03 10:20:00,24.6,15.2,30.09,NW,317,2.0,9.0,67,0.00,,---,0.00,VWS V14.01,2013-03-03 15:20:00,
2013-03-03 10:24:00,24.4,15.0,30.09,NNW,335,2.0,9.0,67,0.00,,---,0.00,VWS V14.01,2013-03-03 15:24:00,
2013-03-03 10:25:00,24.8,15.1,30.09,NNE,19,3.0,8.0,66,0.00,,---,0.00,VWS V14.01,2013-03-03 15:25:00,
2013-03-03 10:29:00,24.8,15.1,30.09,North,5,7.0,8.0,66,0.00,,---,0.00,VWS V14.01,2013-03-03 15:29:00,
2013-03-03 10:30:00,25.0,14.9,30.09,West,280,3.0,11.0,65,0.00,,---,0.00,VWS V14.01,2013-03-03 15:30:00,
2013-03-03 10:34:00,25.1,15.4,30.09,WNW,296,6.0,6.0,66,0.00,,---,0.00,VWS V14.01,2013-03-03 15:34:00,
2013-03-03 10:35:00,24.7,14.6,30.09,NW,321,6.0,17.0,65,0.00,,---,0.00,VWS V14.01,2013-03-03 15:35:00,
2013-03-03 10:39:00,24.9,14.8,30.09,NW,315,6.0,17.0,65,0.00,,---,0.00,VWS V14.01,2013-03-03 15:39:00,
2013-03-03 10:40:00,24.8,15.1,30.09,WNW,293,5.0,11.0,66,0.00,,---,0.00,VWS V14.01,2013-03-03 15:40:00,
2013-03-03 10:44:00,24.8,15.1,30.09,WNW,292,6.0,10.0,66,0.00,,---,0.00,VWS V14.01,2013-03-03 15:44:00,
2013-03-03 10:45:00,24.8,14.7,30.09,NW,323,4.0,10.0,65,0.00,,---,0.00,VWS V14.01,2013-03-03 15:45:00,
2013-03-03 10:49:00,24.7,14.6,30.09,NE,48,6.0,10.0,65,0.00,,---,0.00,VWS V14.01,2013-03-03 15:49:00,
2013-03-03 10:50:00,24.9,14.8,30.09,NW,324,4.0,11.0,65,0.00,,---,0.00,VWS V14.01,2013-03-03 15:50:00,
2013-03-03 10:54:00,24.8,14.7,30.09,WNW,300,5.0,11.0,65,0.00,,---,0.00,VWS V14.01,2013-03-03 15:54:00,
2013-03-03 10:55:00,25.0,15.3,30.08,West,269,2.0,11.0,66,0.00,,---,0.00,VWS V14.01,2013-03-03 15:55:00,
2013-03-03 10:59:00,24.9,14.8,30.09,WNW,287,4.0,11.0,65,0.00,,---,0.00,VWS V14.01,2013-03-03 15:59:00,
2013-03-03 11:00:00,25.4,15.3,30.08,WNW,292,7.0,7.0,65,0.00,,---,0.00,VWS V14.01,2013-03-03 16:00:00,
2013-03-03 11:04:00,25.4,15.6,30.09,NNW,328,5.0,7.0,66,0.00,,---,0.00,VWS V14.01,2013-03-03 16:04:00,
2013-03-03 11:05:00,25.4,14.9,30.08,NW,305,10.0,10.0,64,0.00,,---,0.00,VWS V14.01,2013-03-03 16:05:00,
2013-03-03 11:09:00,25.3,15.2,30.08,WNW,292,7.0,9.0,65,0.00,,---,0.00,VWS V14.01,2013-03-03 16:09:00,
2013-03-03 11:10:00,25.7,15.6,30.08,North,358,4.0,10.0,65,0.00,,---,0.00,VWS V14.01,2013-03-03 16:10:00,
2013-03-03 11:14:00,25.5,15.4,30.08,WSW,249,1.0,10.0,65,0.00,,---,0.00,VWS V14.01,2013-03-03 16:14:00,
2013-03-03 11:15:00,25.8,15.3,30.08,WNW,293,0.0,8.0,64,0.00,,---,0.00,VWS V14.01,2013-03-03 16:15:00,
2013-03-03 11:19:00,25.7,15.2,30.08,WNW,285,2.0,8.0,64,0.00,,---,0.00,VWS V14.01,2013-03-03 16:19:00,
2013-03-03 11:20:00,26.0,15.5,30.08,NW,316,8.0,9.0,64,0.00,,---,0.00,VWS V14.01,2013-03-03 16:20:00,
2013-03-03 11:24:00,25.9,15.4,30.08,NW,308,2.0,9.0,64,0.00,,---,0.00,VWS V14.01,2013-03-03 16:24:00,
2013-03-03 11:25:00,26.3,15.4,30.08,NW,323,5.0,10.0,63,0.00,,---,0.00,VWS V14.01,2013-03-03 16:25:00,
2013-03-03 11:29:00,26.2,15.7,30.08,NNW,338,2.0,10.0,64,0.00,,---,0.00,VWS V14.01,2013-03-03 16:29:00,
2013-03-03 11:30:00,26.2,15.7,30.08,SW,229,2.0,11.0,64,0.00,,---,0.00,VWS V14.01,2013-03-03 16:30:00,
2013-03-03 11:34:00,26.2,15.0,30.08,NW,311,4.0,11.0,62,0.00,,---,0.00,VWS V14.01,2013-03-03 16:34:00,
2013-03-03 11:35:00,26.6,15.7,30.08,WNW,286,4.0,7.0,63,0.00,,---,0.00,VWS V14.01,2013-03-03 16:35:00,
2013-03-03 11:39:00,26.4,15.5,30.08,SW,225,4.0,7.0,63,0.00,,---,0.00,VWS V14.01,2013-03-03 16:39:00,
2013-03-03 11:40:00,26.8,15.9,30.08,WNW,300,2.0,7.0,63,0.00,,---,0.00,VWS V14.01,2013-03-03 16:40:00,
2013-03-03 11:44:00,26.7,15.8,30.08,WNW,302,2.0,5.0,63,0.00,,---,0.00,VWS V14.01,2013-03-03 16:44:00,
2013-03-03 11:45:00,26.8,15.5,30.08,WNW,293,4.0,7.0,62,0.00,,---,0.00,VWS V14.01,2013-03-03 16:45:00,
2013-03-03 11:49:00,26.9,15.6,30.07,NNE,29,2.0,6.0,62,0.00,,---,0.00,VWS V14.01,2013-03-03 16:49:00,
2013-03-03 11:50:00,26.7,15.4,30.07,WNW,302,3.0,10.0,62,0.00,,---,0.00,VWS V14.01,2013-03-03 16:50:00,
2013-03-03 11:54:00,26.7,15.4,30.07,NNE,26,5.0,6.0,62,0.00,,---,0.00,VWS V14.01,2013-03-03 16:54:00,
2013-03-03 11:55:00,26.5,15.3,30.07,NNW,344,4.0,8.0,62,0.00,,---,0.00,VWS V14.01,2013-03-03 16:55:00,
2013-03-03 11:59:00,26.5,14.9,30.07,NW,311,4.0,8.0,61,0.00,,---,0.00,VWS V14.01,2013-03-03 16:59:00,
2013-03-03 12:00:00,27.1,16.2,30.07,NW,314,7.0,10.0,63,0.00,,---,0.00,VWS V14.01,2013-03-03 17:00:00,
2013-03-03 12:04:00,26.7,15.8,30.07,West,276,3.0,5.0,63,0.00,,---,0.00,VWS V14.01,2013-03-03 17:04:00,
2013-03-03 12:05:00,27.3,16.0,30.07,WSW,248,4.0,7.0,62,0.00,,---,0.00,VWS V14.01,2013-03-03 17:05:00,
2013-03-03 12:09:00,27.3,16.0,30.07,WNW,303,7.0,7.0,62,0.00,,---,0.00,VWS V14.01,2013-03-03 17:09:00,
2013-03-03 12:10:00,27.5,16.2,30.07,West,274,2.0,8.0,62,0.00,,---,0.00,VWS V14.01,2013-03-03 17:10:00,
2013-03-03 12:14:00,27.4,16.1,30.07,SW,224,4.0,8.0,62,0.00,,---,0.00,VWS V14.01,2013-03-03 17:14:00,
2013-03-03 12:15:00,27.8,15.7,30.07,WNW,296,4.0,12.0,60,0.00,,---,0.00,VWS V14.01,2013-03-03 17:15:00,
2013-03-03 12:19:00,27.7,16.0,30.07,NW,312,4.0,12.0,61,0.00,,---,0.00,VWS V14.01,2013-03-03 17:19:00,
2013-03-03 12:20:00,27.5,14.7,30.07,WNW,286,1.0,9.0,58,0.00,,---,0.00,VWS V14.01,2013-03-03 17:20:00,
2013-03-03 12:24:00,27.8,15.4,30.07,NW,322,5.0,9.0,59,0.00,,---,0.00,VWS V14.01,2013-03-03 17:24:00,
2013-03-03 12:25:00,27.7,16.0,30.07,NW,314,7.0,7.0,61,0.00,,---,0.00,VWS V14.01,2013-03-03 17:25:00,
2013-03-03 12:29:00,27.5,15.4,30.07,NNW,344,3.0,6.0,60,0.00,,---,0.00,VWS V14.01,2013-03-03 17:29:00,
2013-03-03 12:30:00,28.3,15.8,30.07,NW,323,2.0,7.0,59,0.00,,---,0.00,VWS V14.01,2013-03-03 17:30:00,
2013-03-03 12:34:00,27.9,15.8,30.07,WNW,294,2.0,7.0,60,0.00,,---,0.00,VWS V14.01,2013-03-03 17:34:00,
2013-03-03 12:35:00,28.6,15.3,30.06,NW,321,3.0,4.0,57,0.00,,---,0.00,VWS V14.01,2013-03-03 17:35:00,
2013-03-03 12:39:00,28.5,15.6,30.07,WNW,284,2.0,4.0,58,0.00,,---,0.00,VWS V14.01,2013-03-03 17:39:00,
2013-03-03 12:40:00,28.5,15.2,30.06,WNW,297,5.0,9.0,57,0.00,,---,0.00,VWS V14.01,2013-03-03 17:40:00,
2013-03-03 12:44:00,28.6,15.3,30.06,West,269,5.0,9.0,57,0.00,,---,0.00,VWS V14.01,2013-03-03 17:44:00,
2013-03-03 12:45:00,28.3,15.0,30.06,SW,235,2.0,8.0,57,0.00,,---,0.00,VWS V14.01,2013-03-03 17:45:00,
2013-03-03 12:49:00,28.3,14.6,30.06,North,350,2.0,8.0,56,0.00,,---,0.00,VWS V14.01,2013-03-03 17:49:00,
2013-03-03 12:50:00,28.4,15.5,30.06,WNW,300,4.0,9.0,58,0.00,,---,0.00,VWS V14.01,2013-03-03 17:50:00,
2013-03-03 12:54:00,28.4,15.5,30.06,West,264,5.0,8.0,58,0.00,,---,0.00,VWS V14.01,2013-03-03 17:54:00,
2013-03-03 12:55:00,28.9,16.0,30.06,NNW,338,3.0,8.0,58,0.00,,---,0.00,VWS V14.01,2013-03-03 17:55:00,
2013-03-03 12:59:00,28.7,15.8,30.06,NNW,331,1.0,8.0,58,0.00,,---,0.00,VWS V14.01,2013-03-03 17:59:00,
2013-03-03 13:00:00,29.0,15.7,30.05,SW,221,0.0,6.0,57,0.00,,---,0.00,VWS V14.01,2013-03-03 18:00:00,
2013-03-03 13:04:00,29.1,15.8,30.06,NE,42,1.0,6.0,57,0.00,,---,0.00,VWS V14.01,2013-03-03 18:04:00,
2013-03-03 13:05:00,29.3,16.0,30.05,ESE,110,0.0,9.0,57,0.00,,---,0.00,VWS V14.01,2013-03-03 18:05:00,
2013-03-03 13:09:00,29.2,15.5,30.05,North,6,4.0,4.0,56,0.00,,---,0.00,VWS V14.01,2013-03-03 18:09:00,
2013-03-03 13:10:00,29.9,16.9,30.05,West,281,2.0,6.0,58,0.00,,---,0.00,VWS V14.01,2013-03-03 18:10:00,
2013-03-03 13:14:00,29.6,16.6,30.05,WNW,300,3.0,3.0,58,0.00,,---,0.00,VWS V14.01,2013-03-03 18:14:00,
2013-03-03 13:15:00,29.5,16.2,30.05,SSW,210,0.0,10.0,57,0.00,,---,0.00,VWS V14.01,2013-03-03 18:15:00,
2013-03-03 13:19:00,29.8,16.4,30.05,WSW,249,3.0,10.0,57,0.00,,---,0.00,VWS V14.01,2013-03-03 18:19:00,
2013-03-03 13:20:00,29.7,16.3,30.04,WNW,296,4.0,8.0,57,0.00,,---,0.00,VWS V14.01,2013-03-03 18:20:00,
2013-03-03 13:24:00,29.6,17.0,30.05,West,274,2.0,8.0,59,0.00,,---,0.00,VWS V14.01,2013-03-03 18:24:00,
2013-03-03 13:25:00,29.7,16.8,30.04,WSW,256,2.0,5.0,58,0.00,,---,0.00,VWS V14.01,2013-03-03 18:25:00,
2013-03-03 13:29:00,29.6,16.2,30.04,West,280,3.0,5.0,57,0.00,,---,0.00,VWS V14.01,2013-03-03 18:29:00,
2013-03-03 13:30:00,30.0,15.8,30.04,NNW,341,2.0,13.0,55,0.00,,---,0.00,VWS V14.01,2013-03-03 18:30:00,
2013-03-03 13:34:00,29.9,16.5,30.04,SW,233,3.0,6.0,57,0.00,,---,0.00,VWS V14.01,2013-03-03 18:34:00,
2013-03-03 13:35:00,30.4,16.2,30.04,West,271,4.0,9.0,55,0.00,,---,0.00,VWS V14.01,2013-03-03 18:35:00,
2013-03-03 13:39:00,30.1,15.9,30.04,West,264,2.0,9.0,55,0.00,,---,0.00,VWS V14.01,2013-03-03 18:39:00,
2013-03-03 13:40:00,30.4,15.3,30.04,NW,311,3.0,9.0,53,0.00,,---,0.00,VWS V14.01,2013-03-03 18:40:00,
2013-03-03 13:44:00,30.4,15.8,30.04,West,271,3.0,9.0,54,0.00,,---,0.00,VWS V14.01,2013-03-03 18:44:00,
2013-03-03 13:45:00,30.3,15.7,30.04,ENE,60,2.0,7.0,54,0.00,,---,0.00,VWS V14.01,2013-03-03 18:45:00,
2013-03-03 13:49:00,30.2,15.1,30.04,WSW,252,4.0,7.0,53,0.00,,---,0.00,VWS V14.01,2013-03-03 18:49:00,
2013-03-03 13:50:00,30.6,15.9,30.04,SW,216,1.0,4.0,54,0.00,,---,0.00,VWS V14.01,2013-03-03 18:50:00,
2013-03-03 13:54:00,30.4,14.9,30.04,NNW,336,0.0,4.0,52,0.00,,---,0.00,VWS V14.01,2013-03-03 18:54:00,
2013-03-03 13:55:00,30.7,16.0,30.03,WSW,257,5.0,6.0,54,0.00,,---,0.00,VWS V14.01,2013-03-03 18:55:00,
2013-03-03 13:59:00,30.7,16.0,30.03,WNW,286,2.0,6.0,54,0.00,,---,0.00,VWS V14.01,2013-03-03 18:59:00,
2013-03-03 14:00:00,31.2,15.2,30.03,NW,319,4.0,9.0,51,0.00,,---,0.00,VWS V14.01,2013-03-03 19:00:00,
2013-03-03 14:04:00,31.1,16.4,30.03,WNW,295,7.0,9.0,54,0.00,,---,0.00,VWS V14.01,2013-03-03 19:04:00,
2013-03-03 14:05:00,31.2,15.6,30.03,SW,231,5.0,6.0,52,0.00,,---,0.00,VWS V14.01,2013-03-03 19:05:00,
2013-03-03 14:09:00,31.1,15.1,30.03,WSW,256,3.0,6.0,51,0.00,,---,0.00,VWS V14.01,2013-03-03 19:09:00,
2013-03-03 14:10:00,31.4,16.7,30.03,South,190,3.0,9.0,54,0.00,,---,0.00,VWS V14.01,2013-03-03 19:10:00,
2013-03-03 14:14:00,31.4,17.1,30.03,NW,312,2.0,5.0,55,0.00,,---,0.00,VWS V14.01,2013-03-03 19:14:00,
2013-03-03 14:15:00,31.4,16.7,30.03,WSW,252,3.0,10.0,54,0.00,,---,0.00,VWS V14.01,2013-03-03 19:15:00,
2013-03-03 14:19:00,31.5,16.8,30.03,WSW,246,4.0,9.0,54,0.00,,---,0.00,VWS V14.01,2013-03-03 19:19:00,
2013-03-03 14:20:00,31.4,17.1,30.03,SW,226,3.0,11.0,55,0.00,,---,0.00,VWS V14.01,2013-03-03 19:20:00,
2013-03-03 14:24:00,31.4,16.7,30.03,SW,229,4.0,11.0,54,0.00,,---,0.00,VWS V14.01,2013-03-03 19:24:00,
2013-03-03 14:25:00,31.1,16.4,30.03,WSW,255,2.0,7.0,54,0.00,,---,0.00,VWS V14.01,2013-03-03 19:25:00,
2013-03-03 14:29:00,31.3,16.6,30.03,WNW,301,3.0,7.0,54,0.00,,---,0.00,VWS V14.01,2013-03-03 19:29:00,
2013-03-03 14:30:00,31.1,17.2,30.03,West,271,4.0,7.0,56,0.00,,---,0.00,VWS V14.01,2013-03-03 19:30:00,
2013-03-03 14:34:00,31.0,17.2,30.03,SSW,204,3.0,7.0,56,0.00,,---,0.00,VWS V14.01,2013-03-03 19:34:00,
2013-03-03 14:35:00,31.6,17.7,30.03,NNW,329,4.0,8.0,56,0.00,,---,0.00,VWS V14.01,2013-03-03 19:35:00,
2013-03-03 14:39:00,31.3,17.4,30.03,SSW,196,0.0,8.0,56,0.00,,---,0.00,VWS V14.01,2013-03-03 19:39:00,
2013-03-03 14:40:00,31.5,17.2,30.03,WSW,253,6.0,6.0,55,0.00,,---,0.00,VWS V14.01,2013-03-03 19:40:00,
2013-03-03 14:44:00,31.7,17.0,30.03,WNW,286,5.0,5.0,54,0.00,,---,0.00,VWS V14.01,2013-03-03 19:44:00,
2013-03-03 14:45:00,31.7,17.4,30.03,West,266,5.0,12.0,55,0.00,,---,0.00,VWS V14.01,2013-03-03 19:45:00,
2013-03-03 14:49:00,31.7,17.8,30.03,NW,316,3.0,12.0,56,0.00,,---,0.00,VWS V14.01,2013-03-03 19:49:00,
2013-03-03 14:50:00,32.1,17.3,30.03,West,267,1.0,9.0,54,0.00,,---,0.00,VWS V14.01,2013-03-03 19:50:00,
2013-03-03 14:54:00,31.9,17.6,30.03,SW,231,2.0,9.0,55,0.00,,---,0.00,VWS V14.01,2013-03-03 19:54:00,
2013-03-03 14:55:00,32.3,17.1,30.02,NW,323,5.0,12.0,53,0.00,,---,0.00,VWS V14.01,2013-03-03 19:55:00,
2013-03-03 14:59:00,32.4,17.6,30.03,SW,215,6.0,12.0,54,0.00,,---,0.00,VWS V14.01,2013-03-03 19:59:00,
2013-03-03 15:00:00,32.0,17.2,30.02,WSW,246,3.0,7.0,54,0.00,,---,0.00,VWS V14.01,2013-03-03 20:00:00,
2013-03-03 15:04:00,32.0,16.8,30.02,West,276,3.0,7.0,53,0.00,,---,0.00,VWS V14.01,2013-03-03 20:04:00,
2013-03-03 15:05:00,32.0,16.8,30.02,SW,221,3.0,9.0,53,0.00,,---,0.00,VWS V14.01,2013-03-03 20:05:00,
2013-03-03 15:09:00,32.1,16.9,30.02,SSW,205,4.0,9.0,53,0.00,,---,0.00,VWS V14.01,2013-03-03 20:09:00,
2013-03-03 15:10:00,32.0,16.8,30.02,WSW,255,5.0,10.0,53,0.00,,---,0.00,VWS V14.01,2013-03-03 20:10:00,
2013-03-03 15:14:00,32.1,17.3,30.02,WSW,240,3.0,7.0,54,0.00,,---,0.00,VWS V14.01,2013-03-03 20:14:00,
2013-03-03 15:15:00,31.9,17.6,30.02,NNW,328,2.0,10.0,55,0.00,,---,0.00,VWS V14.01,2013-03-03 20:15:00,
2013-03-03 15:19:00,31.9,16.7,30.02,SW,232,9.0,10.0,53,0.00,,---,0.00,VWS V14.01,2013-03-03 20:19:00,
2013-03-03 15:20:00,31.9,17.2,30.02,WSW,248,3.0,9.0,54,0.00,,---,0.00,VWS V14.01,2013-03-03 20:20:00,
2013-03-03 15:25:00,32.2,17.4,30.02,WNW,292,3.0,7.0,54,0.00,,---,0.00,VWS V14.01,2013-03-03 20:25:00,
2013-03-03 15:30:00,32.0,17.2,30.02,NW,315,2.0,6.0,54,0.00,,---,0.00,VWS V14.01,2013-03-03 20:30:00,
2013-03-03 15:35:00,32.3,17.1,30.02,SW,225,3.0,9.0,53,0.00,,---,0.00,VWS V14.01,2013-03-03 20:35:00,
2013-03-03 15:36:00,32.0,17.0,30.02,SSW,209,2.0,7.0,54,0.00,,,0.00,weatherlink.com 1.10,2013-03-03 20:36:00,
2013-03-03 15:40:00,32.3,16.2,30.02,SW,226,4.0,6.0,51,0.00,,---,0.00,VWS V14.01,2013-03-03 20:40:00,
2013-03-03 15:45:00,32.5,16.4,30.02,SW,236,1.0,6.0,51,0.00,,---,0.00,VWS V14.01,2013-03-03 20:45:00,
2013-03-03 15:48:00,32.3,17.1,30.02,SW,225,3.0,9.0,53,0.00,,---,0.00,VWS V14.01,2013-03-03 20:48:00,
2013-03-03 15:50:00,32.4,16.3,30.02,SW,228,1.0,8.0,51,0.00,,---,0.00,VWS V14.01,2013-03-03 20:50:00,
2013-03-03 15:53:00,32.1,16.9,30.02,SW,235,6.0,6.0,53,0.00,,---,0.00,VWS V14.01,2013-03-03 20:53:00,
2013-03-03 15:55:00,32.4,15.9,30.02,West,270,2.0,6.0,50,0.00,,---,0.00,VWS V14.01,2013-03-03 20:55:00,
2013-03-03 15:58:00,32.4,17.2,30.02,South,191,2.0,9.0,53,0.00,,---,0.00,VWS V14.01,2013-03-03 20:58:00,
2013-03-03 16:00:00,32.2,15.7,30.02,NW,321,2.0,7.0,50,0.00,,---,0.00,VWS V14.01,2013-03-03 21:00:00,
2013-03-03 16:03:00,32.5,16.4,30.02,SW,224,4.0,9.0,51,0.00,,---,0.00,VWS V14.01,2013-03-03 21:03:00,
2013-03-03 16:05:00,32.4,16.8,30.03,SW,224,1.0,6.0,52,0.00,,---,0.00,VWS V14.01,2013-03-03 21:05:00,
2013-03-03 16:08:00,32.5,16.4,30.02,West,276,2.0,5.0,51,0.00,,---,0.00,VWS V14.01,2013-03-03 21:08:00,
2013-03-03 16:10:00,32.3,16.7,30.02,SW,228,2.0,7.0,52,0.00,,---,0.00,VWS V14.01,2013-03-03 21:10:00,
2013-03-03 16:13:00,32.5,16.4,30.02,NNW,346,0.0,6.0,51,0.00,,---,0.00,VWS V14.01,2013-03-03 21:13:00,
2013-03-03 16:15:00,32.4,16.8,30.02,WNW,291,3.0,5.0,52,0.00,,---,0.00,VWS V14.01,2013-03-03 21:15:00,
2013-03-03 16:18:00,32.4,16.3,30.02,SW,217,2.0,6.0,51,0.00,,---,0.00,VWS V14.01,2013-03-03 21:18:00,
2013-03-03 16:20:00,32.2,16.6,30.02,WSW,239,1.0,7.0,52,0.00,,---,0.00,VWS V14.01,2013-03-03 21:20:00,
2013-03-03 16:23:00,32.7,17.0,30.02,WSW,240,3.0,3.0,52,0.00,,---,0.00,VWS V14.01,2013-03-03 21:23:00,
2013-03-03 16:25:00,32.2,17.0,30.03,SW,236,1.0,4.0,53,0.00,,---,0.00,VWS V14.01,2013-03-03 21:25:00,
2013-03-03 16:28:00,32.5,15.9,30.02,SW,233,3.0,5.0,50,0.00,,---,0.00,VWS V14.01,2013-03-03 21:28:00,
2013-03-03 16:30:00,32.1,16.5,30.03,NW,309,2.0,5.0,52,0.00,,---,0.00,VWS V14.01,2013-03-03 21:30:00,
2013-03-03 16:33:00,32.7,17.0,30.02,West,271,2.0,3.0,52,0.00,,---,0.00,VWS V14.01,2013-03-03 21:33:00,
2013-03-03 16:35:00,31.9,16.3,30.03,West,260,1.0,4.0,52,0.00,,---,0.00,VWS V14.01,2013-03-03 21:35:00,
2013-03-03 16:38:00,32.8,16.2,30.02,WNW,292,4.0,5.0,50,0.00,,---,0.00,VWS V14.01,2013-03-03 21:38:00,
2013-03-03 16:40:00,31.5,16.4,30.03,SSW,205,0.0,5.0,53,0.00,,---,0.00,VWS V14.01,2013-03-03 21:40:00,
2013-03-03 16:43:00,32.5,16.4,30.02,NW,312,5.0,6.0,51,0.00,,---,0.00,VWS V14.01,2013-03-03 21:43:00,
2013-03-03 16:45:00,31.2,16.1,30.03,WSW,240,1.0,4.0,53,0.00,,---,0.00,VWS V14.01,2013-03-03 21:45:00,
2013-03-03 16:48:00,32.4,16.3,30.02,SW,234,0.0,6.0,51,0.00,,---,0.00,VWS V14.01,2013-03-03 21:48:00,
2013-03-03 16:50:00,30.9,16.2,30.03,West,261,0.0,6.0,54,0.00,,---,0.00,VWS V14.01,2013-03-03 21:50:00,
2013-03-03 16:53:00,32.5,16.4,30.02,West,269,1.0,6.0,51,0.00,,---,0.00,VWS V14.01,2013-03-03 21:53:00,
2013-03-03 16:55:00,30.4,15.8,30.03,West,264,1.0,6.0,54,0.00,,---,0.00,VWS V14.01,2013-03-03 21:55:00,
2013-03-03 16:58:00,32.5,16.4,30.02,West,259,3.0,5.0,51,0.00,,---,0.00,VWS V14.01,2013-03-03 21:58:00,
2013-03-03 17:00:00,30.0,15.8,30.03,WNW,290,4.0,4.0,55,0.00,,---,0.00,VWS V14.01,2013-03-03 22:00:00,
2013-03-03 17:03:00,32.3,15.8,30.03,WNW,298,2.0,6.0,50,0.00,,---,0.00,VWS V14.01,2013-03-03 22:03:00,
2013-03-03 17:05:00,29.7,15.9,30.04,West,274,0.0,4.0,56,0.00,,---,0.00,VWS V14.01,2013-03-03 22:05:00,
2013-03-03 17:08:00,32.3,16.2,30.03,NW,307,2.0,2.0,51,0.00,,---,0.00,VWS V14.01,2013-03-03 22:08:00,
2013-03-03 17:10:00,29.4,15.7,30.04,WNW,285,3.0,4.0,56,0.00,,---,0.00,VWS V14.01,2013-03-03 22:10:00,
2013-03-03 17:13:00,32.5,16.4,30.02,SW,231,1.0,7.0,51,0.00,,---,0.00,VWS V14.01,2013-03-03 22:13:00,
2013-03-03 17:15:00,29.2,16.3,30.04,WNW,301,0.0,5.0,58,0.00,,---,0.00,VWS V14.01,2013-03-03 22:15:00,
2013-03-03 17:18:00,32.3,16.7,30.02,NW,311,2.0,3.0,52,0.00,,---,0.00,VWS V14.01,2013-03-03 22:18:00,
2013-03-03 17:20:00,28.9,16.0,30.04,WSW,250,4.0,4.0,58,0.00,,---,0.00,VWS V14.01,2013-03-03 22:20:00,
2013-03-03 17:23:00,32.3,16.2,30.03,West,261,2.0,7.0,51,0.00,,---,0.00,VWS V14.01,2013-03-03 22:23:00,
2013-03-03 17:25:00,28.8,15.9,30.04,West,272,1.0,4.0,58,0.00,,---,0.00,VWS V14.01,2013-03-03 22:25:00,
2013-03-03 17:28:00,32.1,16.0,30.03,SW,229,2.0,4.0,51,0.00,,---,0.00,VWS V14.01,2013-03-03 22:28:00,
2013-03-03 17:30:00,28.5,16.0,30.04,West,259,0.0,3.0,59,0.00,,---,0.00,VWS V14.01,2013-03-03 22:30:00,
2013-03-03 17:33:00,32.3,16.7,30.03,SW,229,1.0,3.0,52,0.00,,---,0.00,VWS V14.01,2013-03-03 22:33:00,
2013-03-03 17:35:00,28.2,15.7,30.04,SW,233,0.0,2.0,59,0.00,,---,0.00,VWS V14.01,2013-03-03 22:35:00,
2013-03-03 17:38:00,32.0,16.4,30.03,WSW,246,0.0,2.0,52,0.00,,---,0.00,VWS V14.01,2013-03-03 22:38:00,
2013-03-03 17:40:00,27.9,16.2,30.04,SSW,194,0.0,1.0,61,0.00,,---,0.00,VWS V14.01,2013-03-03 22:40:00,
2013-03-03 17:43:00,31.7,16.5,30.03,South,191,2.0,5.0,53,0.00,,---,0.00,VWS V14.01,2013-03-03 22:43:00,
2013-03-03 17:45:00,27.5,15.8,30.04,WNW,291,0.0,1.0,61,0.00,,---,0.00,VWS V14.01,2013-03-03 22:45:00,
2013-03-03 17:48:00,31.4,16.3,30.03,WNW,295,0.0,2.0,53,0.00,,---,0.00,VWS V14.01,2013-03-03 22:48:00,
2013-03-03 17:50:00,27.3,16.0,30.05,NW,305,0.0,3.0,62,0.00,,---,0.00,VWS V14.01,2013-03-03 22:50:00,
2013-03-03 17:53:00,31.1,16.0,30.03,West,269,0.0,5.0,53,0.00,,---,0.00,VWS V14.01,2013-03-03 22:53:00,
2013-03-03 17:55:00,27.2,15.9,30.05,NW,326,0.0,3.0,62,0.00,,---,0.00,VWS V14.01,2013-03-03 22:55:00,
2013-03-03 17:58:00,30.7,16.0,30.03,West,281,1.0,6.0,54,0.00,,---,0.00,VWS V14.01,2013-03-03 22:58:00,
2013-03-03 18:00:00,27.1,15.8,30.05,NW,305,0.0,3.0,62,0.00,,---,0.00,VWS V14.01,2013-03-03 23:00:00,
2013-03-03 18:03:00,30.2,16.0,30.03,WSW,245,1.0,3.0,55,0.00,,---,0.00,VWS V14.01,2013-03-03 23:03:00,
2013-03-03 18:05:00,26.9,16.0,30.05,WSW,252,0.0,1.0,63,0.00,,---,0.00,VWS V14.01,2013-03-03 23:05:00,
2013-03-03 18:08:00,29.8,15.6,30.03,WSW,250,2.0,4.0,55,0.00,,---,0.00,VWS V14.01,2013-03-03 23:08:00,
2013-03-03 18:10:00,26.8,15.9,30.05,WNW,287,0.0,2.0,63,0.00,,---,0.00,VWS V14.01,2013-03-03 23:10:00,
2013-03-03 18:13:00,29.6,15.8,30.03,WNW,297,0.0,2.0,56,0.00,,---,0.00,VWS V14.01,2013-03-03 23:13:00,
2013-03-03 18:15:00,26.6,15.7,30.05,NW,308,0.0,2.0,63,0.00,,---,0.00,VWS V14.01,2013-03-03 23:15:00,
2013-03-03 18:18:00,29.3,16.0,30.04,West,271,0.0,5.0,57,0.00,,---,0.00,VWS V14.01,2013-03-03 23:18:00,
2013-03-03 18:20:00,26.4,15.9,30.05,NW,312,0.0,2.0,64,0.00,,---,0.00,VWS V14.01,2013-03-03 23:20:00,
2013-03-03 18:23:00,29.1,16.2,30.04,SSW,193,1.0,1.0,58,0.00,,---,0.00,VWS V14.01,2013-03-03 23:23:00,
2013-03-03 18:25:00,26.3,15.8,30.06,NW,318,0.0,1.0,64,0.00,,---,0.00,VWS V14.01,2013-03-03 23:25:00,
2013-03-03 18:28:00,28.9,16.0,30.04,WNW,283,2.0,4.0,58,0.00,,---,0.00,VWS V14.01,2013-03-03 23:28:00,
2013-03-03 18:30:00,26.2,15.7,30.06,SW,234,0.0,2.0,64,0.00,,---,0.00,VWS V14.01,2013-03-03 23:30:00,
2013-03-03 18:33:00,28.7,16.2,30.04,SW,228,0.0,2.0,59,0.00,,---,0.00,VWS V14.01,2013-03-03 23:33:00,
2013-03-03 18:35:00,26.0,15.5,30.06,West,277,0.0,1.0,64,0.00,,---,0.00,VWS V14.01,2013-03-03 23:35:00,
2013-03-03 18:38:00,28.4,15.9,30.04,WSW,243,0.0,2.0,59,0.00,,---,0.00,VWS V14.01,2013-03-03 23:38:00,
2013-03-03 18:40:00,25.9,16.1,30.06,West,263,0.0,2.0,66,0.00,,---,0.00,VWS V14.01,2013-03-03 23:40:00,
2013-03-03 18:43:00,28.1,16.0,30.04,West,269,0.0,1.0,60,0.00,,---,0.00,VWS V14.01,2013-03-03 23:43:00,
2013-03-03 18:45:00,25.7,15.6,30.06,WNW,293,0.0,1.0,65,0.00,,---,0.00,VWS V14.01,2013-03-03 23:45:00,
2013-03-03 18:48:00,27.8,16.1,30.04,WSW,242,0.0,1.0,61,0.00,,---,0.00,VWS V14.01,2013-03-03 23:48:00,
2013-03-03 18:50:00,25.6,15.8,30.06,WNW,292,0.0,1.0,66,0.00,,---,0.00,VWS V14.01,2013-03-03 23:50:00,
2013-03-03 18:53:00,27.4,15.7,30.04,West,261,1.0,3.0,61,0.00,,---,0.00,VWS V14.01,2013-03-03 23:53:00,
2013-03-03 18:55:00,25.5,15.7,30.06,WNW,294,0.0,2.0,66,0.00,,---,0.00,VWS V14.01,2013-03-03 23:55:00,
2013-03-03 18:58:00,27.3,16.0,30.05,WNW,293,1.0,3.0,62,0.00,,---,0.00,VWS V14.01,2013-03-03 23:58:00,
2013-03-03 19:00:00,25.4,15.6,30.06,WNW,293,1.0,3.0,66,0.00,,---,0.00,VWS V14.01,2013-03-04 00:00:00,
2013-03-03 19:03:00,27.1,15.8,30.05,WNW,292,1.0,2.0,62,0.00,,---,0.00,VWS V14.01,2013-03-04 00:03:00,
2013-03-03 19:05:00,25.4,16.0,30.06,WNW,297,0.0,2.0,67,0.00,,---,0.00,VWS V14.01,2013-03-04 00:05:00,
2013-03-03 19:08:00,27.0,15.7,30.05,NW,315,0.0,1.0,62,0.00,,---,0.00,VWS V14.01,2013-03-04 00:08:00,
2013-03-03 19:10:00,25.2,15.8,30.07,WNW,295,0.0,1.0,67,0.00,,---,0.00,VWS V14.01,2013-03-04 00:10:00,
2013-03-03 19:13:00,26.9,16.0,30.05,NW,323,0.0,2.0,63,0.00,,---,0.00,VWS V14.01,2013-03-04 00:13:00,
2013-03-03 19:15:00,25.0,15.6,30.07,WNW,283,0.0,2.0,67,0.00,,---,0.00,VWS V14.01,2013-03-04 00:15:00,
2013-03-03 19:18:00,26.7,15.8,30.05,WNW,287,0.0,0.0,63,0.00,,---,0.00,VWS V14.01,2013-03-04 00:18:00,
2013-03-03 19:20:00,24.8,15.8,30.07,WNW,283,0.0,0.0,68,0.00,,---,0.00,VWS V14.01,2013-03-04 00:20:00,
2013-03-03 19:23:00,26.5,15.6,30.05,NW,308,0.0,2.0,63,0.00,,---,0.00,VWS V14.01,2013-03-04 00:23:00,
2013-03-03 19:25:00,24.5,15.5,30.07,North,356,0.0,1.0,68,0.00,,---,0.00,VWS V14.01,2013-03-04 00:25:00,
2013-03-03 19:28:00,26.4,15.9,30.05,NNW,340,0.0,1.0,64,0.00,,---,0.00,VWS V14.01,2013-03-04 00:28:00,
2013-03-03 19:30:00,24.4,15.7,30.07,North,359,0.0,0.0,69,0.00,,---,0.00,VWS V14.01,2013-03-04 00:30:00,
2013-03-03 19:33:00,26.2,15.7,30.06,NW,310,2.0,2.0,64,0.00,,---,0.00,VWS V14.01,2013-03-04 00:33:00,
2013-03-03 19:35:00,24.5,15.8,30.07,WNW,290,2.0,3.0,69,0.00,,---,0.00,VWS V14.01,2013-03-04 00:35:00,
2013-03-03 19:38:00,26.2,15.7,30.06,West,269,0.0,1.0,64,0.00,,---,0.00,VWS V14.01,2013-03-04 00:38:00,
2013-03-03 19:40:00,24.6,16.2,30.07,WNW,290,0.0,2.0,70,0.00,,---,0.00,VWS V14.01,2013-03-04 00:40:00,
2013-03-03 19:43:00,26.0,15.9,30.06,NW,309,1.0,2.0,65,0.00,,---,0.00,VWS V14.01,2013-03-04 00:43:00,
2013-03-03 19:45:00,24.5,16.1,30.08,WNW,295,1.0,2.0,70,0.00,,---,0.00,VWS V14.01,2013-03-04 00:45:00,
2013-03-03 19:48:00,25.9,15.8,30.06,SW,231,0.0,1.0,65,0.00,,---,0.00,VWS V14.01,2013-03-04 00:48:00,
2013-03-03 19:50:00,24.5,16.1,30.08,WNW,295,0.0,1.0,70,0.00,,---,0.00,VWS V14.01,2013-03-04 00:50:00,
2013-03-03 19:53:00,25.7,15.9,30.06,WNW,294,0.0,1.0,66,0.00,,---,0.00,VWS V14.01,2013-03-04 00:53:00,
2013-03-03 19:55:00,24.3,15.9,30.08,WNW,295,0.0,1.0,70,0.00,,---,0.00,VWS V14.01,2013-03-04 00:55:00,
2013-03-03 19:58:00,25.5,15.7,30.06,WNW,294,0.0,2.0,66,0.00,,---,0.00,VWS V14.01,2013-03-04 00:58:00,
2013-03-03 20:00:00,24.0,16.0,30.08,WNW,295,0.0,0.0,71,0.00,,---,0.00,VWS V14.01,2013-03-04 01:00:00,
2013-03-03 20:03:00,25.4,15.6,30.06,WNW,294,0.0,0.0,66,0.00,,---,0.00,VWS V14.01,2013-03-04 01:03:00,
2013-03-03 20:05:00,23.6,15.6,30.08,WNW,295,0.0,0.0,71,0.00,,---,0.00,VWS V14.01,2013-03-04 01:05:00,
2013-03-03 20:08:00,25.4,15.6,30.06,WNW,284,0.0,1.0,66,0.00,,---,0.00,VWS V14.01,2013-03-04 01:08:00,
2013-03-03 20:10:00,23.6,15.9,30.08,NW,315,0.0,1.0,72,0.00,,---,0.00,VWS V14.01,2013-03-04 01:10:00,
2013-03-03 20:13:00,25.3,15.6,30.07,WNW,302,0.0,1.0,66,0.00,,---,0.00,VWS V14.01,2013-03-04 01:13:00,
2013-03-03 20:15:00,23.5,15.8,30.08,NW,316,2.0,2.0,72,0.00,,---,0.00,VWS V14.01,2013-03-04 01:15:00,
2013-03-03 20:18:00,25.1,15.7,30.07,WNW,295,0.0,1.0,67,0.00,,---,0.00,VWS V14.01,2013-03-04 01:18:00,
2013-03-03 20:20:00,23.7,16.0,30.08,WNW,300,0.0,2.0,72,0.00,,---,0.00,VWS V14.01,2013-03-04 01:20:00,
2013-03-03 20:23:00,25.0,15.9,30.07,WNW,283,0.0,0.0,68,0.00,,---,0.00,VWS V14.01,2013-03-04 01:23:00,
2013-03-03 20:25:00,23.8,15.8,30.08,NNW,342,0.0,2.0,71,0.00,,---,0.00,VWS V14.01,2013-03-04 01:25:00,
2013-03-03 20:28:00,24.7,15.7,30.07,WNW,292,0.0,0.0,68,0.00,,---,0.00,VWS V14.01,2013-03-04 01:28:00,
2013-03-03 20:30:00,23.8,15.8,30.08,WNW,287,0.0,2.0,71,0.00,,---,0.00,VWS V14.01,2013-03-04 01:30:00,
2013-03-03 20:33:00,24.5,15.8,30.07,North,359,0.0,0.0,69,0.00,,---,0.00,VWS V14.01,2013-03-04 01:33:00,
2013-03-03 20:35:00,23.7,15.7,30.08,North,9,1.0,3.0,71,0.00,,---,0.00,VWS V14.01,2013-03-04 01:35:00,
2013-03-03 20:38:00,24.4,15.7,30.07,NNW,338,0.0,1.0,69,0.00,,---,0.00,VWS V14.01,2013-03-04 01:38:00,
2013-03-03 20:40:00,23.7,15.7,30.09,WNW,293,0.0,4.0,71,0.00,,---,0.00,VWS V14.01,2013-03-04 01:40:00,
2013-03-03 20:43:00,24.5,15.8,30.07,NW,323,0.0,2.0,69,0.00,,---,0.00,VWS V14.01,2013-03-04 01:43:00,
2013-03-03 20:45:00,23.6,15.6,30.09,NE,37,0.0,2.0,71,0.00,,---,0.00,VWS V14.01,2013-03-04 01:45:00,
2013-03-03 20:48:00,24.6,16.2,30.08,WNW,290,0.0,0.0,70,0.00,,---,0.00,VWS V14.01,2013-03-04 01:48:00,
2013-03-03 20:50:00,23.4,15.4,30.08,NW,326,2.0,3.0,71,0.00,,---,0.00,VWS V14.01,2013-03-04 01:50:00,
2013-03-03 20:53:00,24.6,16.2,30.08,WNW,295,0.0,1.0,70,0.00,,---,0.00,VWS V14.01,2013-03-04 01:53:00,
2013-03-03 20:55:00,23.4,15.4,30.08,NNW,337,1.0,6.0,71,0.00,,---,0.00,VWS V14.01,2013-03-04 01:55:00,
2013-03-03 20:58:00,24.4,16.0,30.08,WNW,295,0.0,1.0,70,0.00,,---,0.00,VWS V14.01,2013-03-04 01:58:00,
2013-03-03 21:00:00,23.2,15.2,30.08,NE,37,2.0,3.0,71,0.00,,---,0.00,VWS V14.01,2013-03-04 02:00:00,
2013-03-03 21:03:00,24.2,15.8,30.08,WNW,295,0.0,0.0,70,0.00,,---,0.00,VWS V14.01,2013-03-04 02:03:00,
2013-03-03 21:05:00,23.1,15.4,30.09,NNE,20,1.0,4.0,72,0.00,,---,0.00,VWS V14.01,2013-03-04 02:05:00,
2013-03-03 21:08:00,23.9,15.9,30.08,WNW,295,0.0,0.0,71,0.00,,---,0.00,VWS V14.01,2013-03-04 02:08:00,
2013-03-03 21:10:00,22.8,15.1,30.09,NE,34,1.0,2.0,72,0.00,,---,0.00,VWS V14.01,2013-03-04 02:10:00,
2013-03-03 21:13:00,23.6,15.9,30.08,WNW,295,0.0,0.0,72,0.00,,---,0.00,VWS V14.01,2013-03-04 02:13:00,
2013-03-03 21:15:00,22.7,15.1,30.09,WNW,295,1.0,2.0,72,0.00,,---,0.00,VWS V14.01,2013-03-04 02:15:00,
2013-03-03 21:18:00,23.6,15.9,30.08,NW,315,0.0,0.0,72,0.00,,---,0.00,VWS V14.01,2013-03-04 02:18:00,
2013-03-03 21:20:00,22.4,15.1,30.09,NW,309,1.0,2.0,73,0.00,,---,0.00,VWS V14.01,2013-03-04 02:20:00,
2013-03-03 21:23:00,23.6,15.9,30.08,NW,321,0.0,2.0,72,0.00,,---,0.00,VWS V14.01,2013-03-04 02:23:00,
2013-03-03 21:25:00,22.3,15.0,30.09,North,356,1.0,3.0,73,0.00,,---,0.00,VWS V14.01,2013-03-04 02:25:00,
2013-03-03 21:28:00,23.8,16.1,30.08,WNW,295,0.0,2.0,72,0.00,,---,0.00,VWS V14.01,2013-03-04 02:28:00,
2013-03-03 21:30:00,22.1,14.8,30.08,North,1,0.0,2.0,73,0.00,,---,0.00,VWS V14.01,2013-03-04 02:30:00,
2013-03-03 21:33:00,23.8,15.8,30.08,NW,316,0.0,2.0,71,0.00,,---,0.00,VWS V14.01,2013-03-04 02:33:00,
2013-03-03 21:35:00,21.8,14.8,30.09,NNW,341,2.0,5.0,74,0.00,,---,0.00,VWS V14.01,2013-03-04 02:35:00,
2013-03-03 21:38:00,23.8,15.8,30.08,WNW,287,1.0,1.0,71,0.00,,---,0.00,VWS V14.01,2013-03-04 02:38:00,
2013-03-03 21:40:00,21.7,14.7,30.09,NNE,22,1.0,4.0,74,0.00,,---,0.00,VWS V14.01,2013-03-04 02:40:00,
2013-03-03 21:43:00,23.6,15.6,30.08,NW,304,3.0,3.0,71,0.00,,---,0.00,VWS V14.01,2013-03-04 02:43:00,
2013-03-03 21:45:00,21.5,14.5,30.09,NNW,339,2.0,2.0,74,0.00,,---,0.00,VWS V14.01,2013-03-04 02:45:00,
2013-03-03 21:48:00,23.7,15.7,30.08,NW,308,1.0,2.0,71,0.00,,---,0.00,VWS V14.01,2013-03-04 02:48:00,
2013-03-03 21:50:00,21.2,14.2,30.09,NNE,15,3.0,3.0,74,0.00,,---,0.00,VWS V14.01,2013-03-04 02:50:00,
2013-03-03 21:53:00,23.5,15.5,30.08,NE,34,1.0,1.0,71,0.00,,---,0.00,VWS V14.01,2013-03-04 02:53:00,
2013-03-03 21:55:00,21.1,14.4,30.09,North,350,2.0,3.0,75,0.00,,---,0.00,VWS V14.01,2013-03-04 02:55:00,
2013-03-03 21:58:00,23.4,15.4,30.08,NE,36,1.0,6.0,71,0.00,,---,0.00,VWS V14.01,2013-03-04 02:58:00,
2013-03-03 22:00:00,20.9,14.2,30.09,NNW,348,1.0,5.0,75,0.00,,---,0.00,VWS V14.01,2013-03-04 03:00:00,
2013-03-03 22:03:00,23.4,15.4,30.08,NNW,345,0.0,2.0,71,0.00,,---,0.00,VWS V14.01,2013-03-04 03:03:00,
2013-03-03 22:05:00,20.7,14.0,30.09,NNE,30,1.0,3.0,75,0.00,,---,0.00,VWS V14.01,2013-03-04 03:05:00,
2013-03-03 22:08:00,23.1,15.1,30.08,North,354,4.0,4.0,71,0.00,,---,0.00,VWS V14.01,2013-03-04 03:08:00,
2013-03-03 22:10:00,20.6,13.9,30.09,North,6,1.0,2.0,75,0.00,,---,0.00,VWS V14.01,2013-03-04 03:10:00,
2013-03-03 22:13:00,23.1,15.4,30.08,NNE,13,0.0,1.0,72,0.00,,---,0.00,VWS V14.01,2013-03-04 03:13:00,
2013-03-03 22:15:00,20.5,13.9,30.09,NNE,16,0.0,2.0,75,0.00,,---,0.00,VWS V14.01,2013-03-04 03:15:00,
2013-03-03 22:18:00,22.8,15.1,30.09,North,8,0.0,1.0,72,0.00,,---,0.00,VWS V14.01,2013-03-04 03:18:00,
2013-03-03 22:20:00,20.2,13.9,30.09,NW,319,0.0,2.0,76,0.00,,---,0.00,VWS V14.01,2013-03-04 03:20:00,
2013-03-03 22:23:00,22.7,15.1,30.09,NW,309,0.0,1.0,72,0.00,,---,0.00,VWS V14.01,2013-03-04 03:23:00,
2013-03-03 22:25:00,20.0,13.7,30.09,NNE,13,0.0,4.0,76,0.00,,---,0.00,VWS V14.01,2013-03-04 03:25:00,
2013-03-03 22:28:00,22.4,15.1,30.09,NW,310,0.0,1.0,73,0.00,,---,0.00,VWS V14.01,2013-03-04 03:28:00,
2013-03-03 22:30:00,19.9,13.6,30.09,NNW,331,0.0,1.0,76,0.00,,---,0.00,VWS V14.01,2013-03-04 03:30:00,
2013-03-03 22:33:00,22.2,14.9,30.09,NNW,347,0.0,1.0,73,0.00,,---,0.00,VWS V14.01,2013-03-04 03:33:00,
2013-03-03 22:35:00,19.6,13.6,30.09,NNW,331,0.0,0.0,77,0.00,,---,0.00,VWS V14.01,2013-03-04 03:35:00,
2013-03-03 22:38:00,22.0,14.7,30.09,NNW,341,1.0,1.0,73,0.00,,---,0.00,VWS V14.01,2013-03-04 03:38:00,
2013-03-03 22:40:00,19.2,13.2,30.09,NNW,331,0.0,0.0,77,0.00,,---,0.00,VWS V14.01,2013-03-04 03:40:00,
2013-03-03 22:43:00,21.8,14.8,30.09,NNW,329,4.0,4.0,74,0.00,,---,0.00,VWS V14.01,2013-03-04 03:43:00,
2013-03-03 22:45:00,18.9,13.2,30.10,WNW,284,0.0,0.0,78,0.00,,---,0.00,VWS V14.01,2013-03-04 03:45:00,
2013-03-03 22:48:00,21.7,14.7,30.09,NNW,331,0.0,1.0,74,0.00,,---,0.00,VWS V14.01,2013-03-04 03:48:00,
2013-03-03 22:50:00,18.7,13.3,30.10,North,353,0.0,1.0,79,0.00,,---,0.00,VWS V14.01,2013-03-04 03:50:00,
2013-03-03 22:53:00,21.5,14.5,30.09,North,349,0.0,2.0,74,0.00,,---,0.00,VWS V14.01,2013-03-04 03:53:00,
2013-03-03 22:55:00,18.6,13.2,30.10,North,352,0.0,0.0,79,0.00,,---,0.00,VWS V14.01,2013-03-04 03:55:00,
2013-03-03 22:58:00,21.2,14.2,30.09,NNW,341,1.0,3.0,74,0.00,,---,0.00,VWS V14.01,2013-03-04 03:58:00,
2013-03-03 23:00:00,18.4,13.0,30.10,North,353,0.0,0.0,79,0.00,,---,0.00,VWS V14.01,2013-03-04 04:00:00,
2013-03-03 23:03:00,21.0,14.3,30.09,North,360,0.0,3.0,75,0.00,,---,0.00,VWS V14.01,2013-03-04 04:03:00,
2013-03-03 23:05:00,18.1,13.0,30.10,North,353,0.0,0.0,80,0.00,,---,0.00,VWS V14.01,2013-03-04 04:05:00,
2013-03-03 23:08:00,20.9,14.2,30.09,NW,323,3.0,3.0,75,0.00,,---,0.00,VWS V14.01,2013-03-04 04:08:00,
2013-03-03 23:10:00,17.6,12.5,30.10,North,353,0.0,0.0,80,0.00,,---,0.00,VWS V14.01,2013-03-04 04:10:00,
2013-03-03 23:13:00,20.7,14.0,30.09,NNW,342,0.0,1.0,75,0.00,,---,0.00,VWS V14.01,2013-03-04 04:13:00,
2013-03-03 23:15:00,17.0,12.2,30.10,North,353,0.0,0.0,81,0.00,,---,0.00,VWS V14.01,2013-03-04 04:15:00,
2013-03-03 23:18:00,20.6,13.9,30.09,North,352,0.0,2.0,75,0.00,,---,0.00,VWS V14.01,2013-03-04 04:18:00,
2013-03-03 23:20:00,16.8,12.3,30.11,NNW,346,1.0,1.0,82,0.00,,---,0.00,VWS V14.01,2013-03-04 04:20:00,
2013-03-03 23:23:00,20.4,13.8,30.09,NNE,16,0.0,0.0,75,0.00,,---,0.00,VWS V14.01,2013-03-04 04:23:00,
2013-03-03 23:25:00,16.9,12.4,30.11,NNW,346,0.0,1.0,82,0.00,,---,0.00,VWS V14.01,2013-03-04 04:25:00,
2013-03-03 23:28:00,20.2,13.9,30.09,NNE,27,0.0,4.0,76,0.00,,---,0.00,VWS V14.01,2013-03-04 04:28:00,
2013-03-03 23:30:00,16.8,12.3,30.11,NW,322,0.0,0.0,82,0.00,,---,0.00,VWS V14.01,2013-03-04 04:30:00,
2013-03-03 23:33:00,20.0,13.7,30.09,North,360,0.0,1.0,76,0.00,,---,0.00,VWS V14.01,2013-03-04 04:33:00,
2013-03-03 23:35:00,16.6,12.1,30.11,NW,313,0.0,0.0,82,0.00,,---,0.00,VWS V14.01,2013-03-04 04:35:00,
2013-03-03 23:38:00,19.8,13.5,30.09,NNW,331,0.0,0.0,76,0.00,,---,0.00,VWS V14.01,2013-03-04 04:38:00,
2013-03-03 23:40:00,16.4,11.9,30.11,NW,314,0.0,0.0,82,0.00,,---,0.00,VWS V14.01,2013-03-04 04:40:00,
2013-03-03 23:43:00,19.5,13.5,30.09,NNW,332,0.0,0.0,77,0.00,,---,0.00,VWS V14.01,2013-03-04 04:43:00,
2013-03-03 23:45:00,16.2,11.9,30.11,NW,314,0.0,0.0,83,0.00,,---,0.00,VWS V14.01,2013-03-04 04:45:00,
2013-03-03 23:48:00,19.1,13.1,30.10,WNW,284,0.0,0.0,77,0.00,,---,0.00,VWS V14.01,2013-03-04 04:48:00,
2013-03-03 23:50:00,15.8,11.6,30.11,NW,314,0.0,0.0,83,0.00,,---,0.00,VWS V14.01,2013-03-04 04:50:00,
2013-03-03 23:53:00,18.8,13.1,30.10,WNW,296,0.0,0.0,78,0.00,,---,0.00,VWS V14.01,2013-03-04 04:53:00,
2013-03-03 23:55:00,15.6,11.6,30.12,NW,314,0.0,0.0,84,0.00,,---,0.00,VWS V14.01,2013-03-04 04:55:00,
2013-03-03 23:58:00,18.7,13.3,30.10,North,352,0.0,0.0,79,0.00,,---,0.00,VWS V14.01,2013-03-04 04:58:00,